ROCKWY Weather Reports


Display with metric or nautical units.
time (UTC)temp
F
wind
direction
speed
MPH
gust
MPH
rain 1hr
in
rain 24hr
in
rain mn
in
humidity
%
barometer
mb
20180722175830 57 0 0.0 0.0 0.00 0.00 0.00 27 1021.6
20180722175330 57 0 0.0 0.0 0.00 0.00 0.00 27 1021.6
20180722174830 57 0 0.0 0.0 0.00 0.00 0.00 28 1021.6
20180722174330 57 0 0.0 0.0 0.00 0.00 0.00 28 1021.6
20180722172831 56 0 0.0 0.0 0.00 0.00 0.00 29 1021.7
20180722171830 56 0 0.0 0.0 0.00 0.00 0.00 28 1021.6
20180722170330 56 0 0.0 0.0 0.00 0.00 0.00 30 1021.7
20180722165330 56 0 0.0 0.0 0.00 0.00 0.00 30 1021.8
20180722162830 55 0 0.0 0.0 0.00 0.00 0.00 33 1021.8
20180722161831 54 0 0.0 0.0 0.00 0.00 0.00 34 1022.0
20180722155830 54 0 0.0 0.0 0.00 0.00 0.00 35 1021.6
20180722153330 53 0 0.0 0.0 0.00 0.00 0.00 35 1021.8
20180722152830 53 0 0.0 0.0 0.00 0.00 0.00 35 1021.8
20180722145830 53 0 0.0 0.0 0.00 0.00 0.00 36 1022.2
20180722144830 53 0 0.0 0.0 0.00 0.00 0.00 36 1022.2
20180722142830 52 0 0.0 0.0 0.00 0.00 0.00 35 1022.2
20180722140330 52 0 0.0 0.0 0.00 0.00 0.00 33 1022.1
20180722135830 52 0 0.0 0.0 0.00 0.00 0.00 34 1022.1
20180722133330 53 0 0.0 0.0 0.00 0.00 0.00 34 1021.8
20180722132830 54 0 0.0 0.0 0.00 0.00 0.00 35 1021.7
20180722124831 53 0 0.0 0.0 0.00 0.00 0.00 35 1021.8
20180722123330 53 0 0.0 0.0 0.00 0.00 0.00 36 1021.9
20180722121830 52 0 0.0 0.0 0.00 0.00 0.00 35 1021.9
20180722121331 52 0 0.0 0.0 0.00 0.00 0.00 35 1021.9
20180722120831 52 0 0.0 0.0 0.00 0.00 0.00 34 1021.9
20180722120331 52 0 0.0 0.0 0.00 0.00 0.00 34 1021.9
20180722115830 52 0 0.0 0.0 0.00 0.00 0.00 34 1021.9
20180722115331 52 0 0.0 0.0 0.00 0.00 0.00 34 1021.9
20180722114831 52 0 0.0 0.0 0.00 0.00 0.00 34 1022.0
20180722114331 53 0 0.0 0.0 0.00 0.00 0.00 34 1022.0
20180722112830 53 0 0.0 0.0 0.00 0.00 0.00 34 1022.0
20180722112331 53 0 0.0 0.0 0.00 0.00 0.00 34 1022.2
20180722111331 53 0 0.0 0.0 0.00 0.00 0.00 33 1022.2
20180722110831 53 0 0.0 0.0 0.00 0.00 0.00 32 1022.3
20180722110334 53 0 0.0 0.0 0.00 0.00 0.00 32 1022.3
20180722105830 53 0 0.0 0.0 0.00 0.00 0.00 32 1022.3
20180722105330 53 0 0.0 0.0 0.00 0.00 0.00 32 1022.2
20180722104830 53 0 0.0 0.0 0.00 0.00 0.00 31 1022.1
20180722104331 53 0 0.0 0.0 0.00 0.00 0.00 31 1022.0
20180722103831 54 0 0.0 0.0 0.00 0.00 0.00 31 1022.1
20180722102830 54 0 0.0 0.0 0.00 0.00 0.00 31 1022.1
20180722102331 54 0 0.0 0.0 0.00 0.00 0.00 31 1022.0
20180722101830 54 0 0.0 0.0 0.00 0.00 0.00 31 1022.1
20180722101331 54 0 0.0 0.0 0.00 0.00 0.00 31 1022.1
20180722100831 54 0 0.0 0.0 0.00 0.00 0.00 30 1022.2
20180722100331 54 0 0.0 0.0 0.00 0.00 0.00 30 1022.3
20180722095830 54 0 0.0 0.0 0.00 0.00 0.00 30 1022.3
20180722095331 54 0 0.0 0.0 0.00 0.00 0.00 30 1022.4
20180722094831 54 0 0.0 0.0 0.00 0.00 0.00 30 1022.3
20180722094331 54 0 0.0 0.0 0.00 0.00 0.00 30 1022.2
20180722093831 54 0 0.0 0.0 0.00 0.00 0.00 29 1022.2
20180722093330 54 0 0.0 0.0 0.00 0.00 0.00 29 1022.3
20180722092830 54 0 0.0 0.0 0.00 0.00 0.00 29 1022.3
20180722092330 55 0 0.0 0.0 0.00 0.00 0.00 28 1022.4
20180722091831 55 0 0.0 0.0 0.00 0.00 0.00 28 1022.4
20180722091331 55 0 0.0 0.0 0.00 0.00 0.00 28 1022.4
20180722090831 55 0 0.0 0.0 0.00 0.00 0.00 28 1022.4
20180722085831 55 0 0.0 0.0 0.00 0.00 0.00 28 1022.4
20180722085331 55 0 0.0 0.0 0.00 0.00 0.00 28 1022.3
20180722084831 55 0 0.0 0.0 0.00 0.00 0.00 28 1022.3
20180722084331 55 0 0.0 0.0 0.00 0.00 0.00 28 1022.3
20180722083830 55 0 0.0 0.0 0.00 0.00 0.00 28 1022.4
20180722082330 55 0 0.0 0.0 0.00 0.00 0.00 27 1022.3
20180722081830 55 0 0.0 0.0 0.00 0.00 0.00 27 1022.3
20180722081330 55 0 0.0 0.0 0.00 0.00 0.00 26 1022.3
20180722080831 55 0 0.0 0.0 0.00 0.00 0.00 25 1022.3
20180722080330 56 0 0.0 0.0 0.00 0.00 0.00 25 1022.3
20180722075830 56 0 0.0 0.0 0.00 0.00 0.00 24 1022.3
20180722075331 56 0 0.0 0.0 0.00 0.00 0.00 24 1022.3
20180722074830 56 0 0.0 0.0 0.00 0.00 0.00 24 1022.3
20180722074331 56 0 0.0 0.0 0.00 0.00 0.00 24 1022.3
20180722073830 56 0 0.0 0.0 0.00 0.00 0.00 25 1022.3
20180722073334 55 0 0.0 0.0 0.00 0.00 0.00 25 1022.3
20180722072830 55 0 0.0 0.0 0.00 0.00 0.00 25 1022.3
20180722072330 56 0 0.0 0.0 0.00 0.00 0.00 25 1022.4
20180722071830 56 0 0.0 0.0 0.00 0.00 0.00 25 1022.4
20180722071330 56 0 0.0 0.0 0.00 0.00 0.00 25 1022.4
20180722070830 56 0 0.0 0.0 0.00 0.00 0.00 25 1022.5
20180722065830 56 0 0.0 0.0 0.00 0.00 0.00 25 1022.5
20180722065330 56 0 0.0 0.0 0.00 0.00 0.00 25 1022.4
20180722064830 56 0 0.0 0.0 0.00 0.00 0.00 24 1022.5
20180722064330 56 0 0.0 0.0 0.00 0.00 0.00 24 1022.4
20180722063830 56 0 0.0 0.0 0.00 0.00 0.00 24 1022.5
20180722063333 56 0 0.0 0.0 0.00 0.00 0.00 24 1022.5
20180722062830 56 0 0.0 0.0 0.00 0.00 0.00 24 1022.5
20180722062330 56 0 0.0 0.0 0.00 0.00 0.00 23 1022.4
20180722061830 56 0 0.0 0.0 0.00 0.00 0.00 23 1022.4
20180722061330 56 0 0.0 0.0 0.00 0.00 0.00 23 1022.3
20180722060830 56 0 0.0 0.0 0.00 0.00 0.00 23 1022.4
20180722060330 56 0 0.0 0.0 0.00 0.00 0.00 23 1022.3
20180722055830 56 0 0.0 0.0 0.00 0.00 0.00 23 1022.3
20180722055330 57 0 0.0 0.0 0.00 0.00 0.00 23 1022.4
20180722054831 57 0 0.0 0.0 0.00 0.00 0.00 23 1022.5
20180722054330 57 0 0.0 0.0 0.00 0.00 0.00 23 1022.4
20180722053829 57 0 0.0 0.0 0.00 0.00 0.00 23 1022.4
20180722053331 57 0 0.0 0.0 0.00 0.00 0.00 23 1022.4
20180722052829 57 0 0.0 0.0 0.00 0.00 0.00 23 1022.4
20180722052330 57 0 0.0 0.0 0.00 0.00 0.00 22 1022.4
20180722051831 57 0 0.0 0.0 0.00 0.00 0.00 22 1022.4
20180722051330 57 0 0.0 0.0 0.00 0.00 0.00 22 1022.4
20180722050830 57 0 0.0 0.0 0.00 0.00 0.00 23 1022.4
20180722045830 57 0 0.0 0.0 0.00 0.00 0.00 24 1022.5
20180722045329 57 0 0.0 0.0 0.00 0.00 0.00 24 1022.4
20180722044831 57 0 0.0 0.0 0.00 0.00 0.00 24 1022.5
20180722044330 57 0 0.0 0.0 0.00 0.00 0.00 24 1022.5
20180722043829 57 0 0.0 0.0 0.00 0.00 0.00 24 1022.5
20180722043334 57 0 0.0 0.0 0.00 0.00 0.00 24 1022.4
20180722042829 57 0 0.0 0.0 0.00 0.00 0.00 24 1022.4
20180722042329 57 0 0.0 0.0 0.00 0.00 0.00 25 1022.3
20180722041829 57 0 0.0 0.0 0.00 0.00 0.00 25 1022.3
20180722041330 57 0 0.0 0.0 0.00 0.00 0.00 25 1022.4
20180722040829 57 0 0.0 0.0 0.00 0.00 0.00 25 1022.3
20180722040330 57 0 0.0 0.0 0.00 0.00 0.00 24 1022.3
20180722035829 57 0 0.0 0.0 0.00 0.00 0.00 24 1022.2
20180722035329 57 0 0.0 0.0 0.00 0.00 0.00 25 1022.2
20180722034829 58 0 0.0 0.0 0.00 0.00 0.00 25 1022.2
20180722034330 58 0 0.0 0.0 0.00 0.00 0.00 25 1022.2
20180722033829 57 0 0.0 3.0 0.00 0.00 0.00 25 1022.2
20180722033330 57 0 0.0 3.0 0.00 0.00 0.00 25 1022.2
20180722032829 58 0 0.0 3.0 0.00 0.00 0.00 25 1022.1
20180722032329 58 44 0.0 7.0 0.00 0.00 0.00 25 1022.1
20180722031830 58 22 0.0 7.0 0.00 0.00 0.00 26 1022.1
20180722031330 58 47 0.0 7.0 0.00 0.00 0.00 26 1022.0
20180722030831 58 7 0.0 5.0 0.00 0.00 0.00 25 1022.0
20180722030329 58 60 0.0 5.0 0.00 0.00 0.00 25 1021.9
20180722025832 58 30 0.0 5.0 0.00 0.00 0.00 25 1021.9
20180722025330 58 43 0.0 5.0 0.00 0.00 0.00 25 1021.9
20180722024830 58 49 3.0 5.0 0.00 0.00 0.00 24 1021.8
20180722024331 58 21 0.0 5.0 0.00 0.00 0.00 24 1021.9
20180722023830 58 35 1.0 7.0 0.00 0.00 0.00 24 1021.8
20180722023334 58 21 1.0 7.0 0.00 0.00 0.00 24 1021.8
20180722022830 59 1 2.0 7.0 0.00 0.00 0.00 23 1021.8
20180722022330 59 0 0.0 4.0 0.00 0.00 0.00 23 1021.7
20180722021830 59 46 0.0 8.0 0.00 0.00 0.00 23 1021.8
20180722021330 59 57 0.0 8.0 0.00 0.00 0.00 23 1021.7
20180722020830 59 60 4.0 8.0 0.00 0.00 0.00 23 1021.7
20180722015830 59 149 1.0 6.0 0.00 0.00 0.00 22 1021.8
20180722014330 59 7 2.0 8.0 0.00 0.00 0.00 21 1021.7
20180722013330 59 15 1.0 6.0 0.00 0.00 0.00 21 1021.6
20180722012329 60 1 3.0 11.0 0.00 0.00 0.00 20 1021.6
20180722001330 60 21 2.0 5.0 0.00 0.00 0.00 19 1021.6
20180721235329 60 82 2.0 6.0 0.00 0.00 0.00 18 1021.4
20180721223329 62 0 0.0 4.0 0.00 0.00 0.00 12 1021.5
20180721222329 62 63 0.0 4.0 0.00 0.00 0.00 11 1021.6
20180721215830 63 8 2.0 5.0 0.00 0.00 0.00 10 1021.3
20180721213829 62 35 0.0 4.0 0.00 0.00 0.00 11 1021.5
20180721212329 62 357 1.0 6.0 0.00 0.00 0.00 10 1021.4
20180721211829 62 22 2.0 6.0 0.00 0.00 0.00 10 1021.4
20180721210330 62 46 3.0 7.0 0.00 0.00 0.00 9 1021.3
20180721204829 63 0 0.0 8.0 0.00 0.00 0.00 8 1021.3
20180721203331 63 25 3.0 6.0 0.00 0.00 0.00 8 1021.3
20180721202829 63 46 4.0 7.0 0.00 0.00 0.00 8 1021.3
20180721200331 63 4 0.0 5.0 0.00 0.00 0.00 8 1021.4
20180721195829 63 357 0.0 5.0 0.00 0.00 0.00 8 1021.5
20180721194829 62 11 0.0 5.0 0.00 0.00 0.00 10 1021.6
20180721190829 62 19 0.0 5.0 0.00 0.00 0.00 11 1022.0
20180721190330 61 2 0.0 5.0 0.00 0.00 0.00 13 1022.2
20180721185829 61 49 1.0 5.0 0.00 0.00 0.00 13 1022.2